User: anonymous
Location: Caltech
(34.1382°N, 118.1253°W)
Time: 20:40:49
(UTC-07:00)
Language:

AO-27 - Orbit

View from above orbital plane
View from above orbital plane
View from above satellite
View from above satellite

Ground track
Ground track

The orbit data is extracted from the following two-line orbital elements,

1 22825U 93061C   14293.40827913  .00000237  00000-0  10960-3 0  8003
2 22825 098.6766 238.8969 0007296 292.9420 221.0044 14.29763391 98678
Epoch (UTC): 20 October 2014 09:47:55
Eccentricity: 0.0007296
inclination: 98.6766°
perigee height: 787 km
apogee height: 798 km
right ascension of ascending node: 238.8969°
argument of perigee: 292.9420°
revolutions per day: 14.29763391
mean anomaly at epoch: 221.0044°
orbit number at epoch: 9867

The dashed part of the orbit path shows where the satellite is in the earth's shadow,  

DLR